Fairfield, IA

10:32 AM CST on December 12, 2019 (GMT -0600)
Fairfield Municipal

Weather History for KFFL - September, 2019

Change the Weather History Date:

Sunday, September 15, 2019

  Actual Average Record
Temperature  
Mean Temperature 78 °F -  
Max Temperature 87 °F 73 °F 91 °F (2017)
Min Temperature 69 °F 52 °F 35 °F (2007)
Cooling Degree Days 13    
Growing Degree Days 28 (Base 50)    
Moisture  
Dew Point 71 °F    
Average Humidity 83    
Maximum Humidity 100    
Minimum Humidity 62    
Precipitation  
Precipitation 0.10 in - - ()
Sea Level Pressure  
Sea Level Pressure 30.00 in    
Wind  
Wind Speed 10 mph (SW)    
Max Wind Speed 16 mph    
Max Gust Speed 29 mph    
Visibility 10 miles    
Events      
Averages and records for this station are not official NWS values.
T = Trace of Precipitation, MM = Missing Value Source: NWS Daily Summary

Daily Weather History Graph

Daily Weather History Graph

Search for Another Location

Airport or City:

Astronomy

Sep. 15, 2019 Rise Set
Actual Time 6:48 AM CDT 7:17 PM CDT
Civil Twilight 6:20 AM CDT 7:44 PM CDT
Nautical Twilight 5:48 AM CDT 8:17 PM CDT
Astronomical Twilight 5:14 AM CDT 8:50 PM CDT
Moon 8:24 PM CDT (9/15) 7:58 AM CDT (9/15)
Length of Visible Light 13h 24m
Length of Day
12h 29m
Full, 98% of the Moon is Illuminated
Sep 15
Full
Sep 21
Last Quarter
Sep 28
New
Oct 5
First Quarter
Oct 13
Full

Hourly Weather History & Observations

Time (CDT) Temp. Heat Index Dew Point Humidity Pressure Visibility Wind Dir Wind Speed Gust Speed Precip Events Conditions
12:15 AM 71.6 °F - 62.6 °F 73% 30.04 in 10.0 mi SSE 9.2 mph - N/A   Partly Cloudy
12:35 AM 71.6 °F - 62.6 °F 73% 30.03 in 10.0 mi South 10.4 mph - N/A   Clear
12:55 AM 71.6 °F - 64.4 °F 78% 30.02 in 10.0 mi South 10.4 mph - N/A   Clear
1:15 AM 73.4 °F - 64.4 °F 73% 30.02 in 10.0 mi South 11.5 mph 17.3 mph N/A   Mostly Cloudy
1:35 AM 73.4 °F - 64.4 °F 73% 30.01 in 10.0 mi South 11.5 mph 18.4 mph N/A   Mostly Cloudy
1:55 AM 73.4 °F - 66.2 °F 78% 30.00 in 10.0 mi South 12.7 mph 19.6 mph N/A   Overcast
2:15 AM 73.4 °F - 66.2 °F 78% 30.06 in 8.0 mi WNW 12.7 mph - N/A   Overcast
3:55 AM 69.8 °F - 68.0 °F 94% 30.00 in 10.0 mi South 10.4 mph - N/A   Unknown
4:15 AM 69.8 °F - 68.0 °F 94% 30.00 in 10.0 mi SSW 10.4 mph - N/A   Overcast
4:35 AM 71.6 °F - 69.8 °F 94% 30.00 in 10.0 mi SSW 16.1 mph 28.8 mph N/A   Overcast
4:55 AM 69.8 °F - 69.8 °F 100% 30.03 in 4.0 mi WSW 12.7 mph - 0.04 in   Overcast
5:15 AM 71.6 °F - 69.8 °F 94% 29.99 in 8.0 mi South 13.8 mph - N/A   Overcast
5:35 AM 71.6 °F - 69.8 °F 94% 29.99 in 6.0 mi South 10.4 mph 20.7 mph N/A   Overcast
5:55 AM 71.6 °F - 69.8 °F 94% 30.00 in 8.0 mi SSW 9.2 mph 16.1 mph 0.05 in   Overcast
6:15 AM 69.8 °F - 69.8 °F 100% 30.01 in 9.0 mi South 11.5 mph 18.4 mph N/A   Overcast
6:35 AM 69.8 °F - 69.8 °F 100% 30.01 in 10.0 mi SSW 10.4 mph 17.3 mph N/A   Overcast
6:55 AM 69.8 °F - 68.0 °F 94% 30.01 in 10.0 mi SSW 9.2 mph 15.0 mph 0.01 in   Overcast
7:15 AM 69.8 °F - 68.0 °F 94% 30.02 in 10.0 mi South 8.1 mph - N/A   Overcast
7:35 AM 69.8 °F - 66.2 °F 88% 30.02 in 10.0 mi South 11.5 mph - N/A   Scattered Clouds
7:55 AM 69.8 °F - 68.0 °F 94% 30.02 in 10.0 mi South 11.5 mph - N/A   Clear
8:15 AM 71.6 °F - 68.0 °F 88% 30.01 in 10.0 mi South 10.4 mph - N/A   Partly Cloudy
8:35 AM 71.6 °F - 69.8 °F 94% 30.01 in 10.0 mi South 12.7 mph - N/A   Scattered Clouds
8:55 AM 71.6 °F - 69.8 °F 94% 30.02 in 10.0 mi South 11.5 mph - N/A   Partly Cloudy
9:15 AM 73.4 °F - 69.8 °F 88% 30.02 in 10.0 mi South 15.0 mph - N/A   Clear
9:35 AM 73.4 °F - 71.6 °F 94% 30.02 in 10.0 mi South 10.4 mph 17.3 mph N/A   Clear
9:55 AM 75.2 °F - 71.6 °F 89% 30.02 in 10.0 mi South 11.5 mph 18.4 mph N/A   Clear
10:55 AM 78.8 °F - 71.6 °F 78% 30.01 in 10.0 mi SSW 15.0 mph 20.7 mph N/A   Clear
11:15 AM 78.8 °F - 71.6 °F 78% 30.01 in 10.0 mi SSW 15.0 mph 21.9 mph N/A   Clear
11:35 AM 80.6 °F 85.4 °F 73.4 °F 79% 30.01 in 10.0 mi SW 11.5 mph 19.6 mph N/A   Clear
11:55 AM 80.6 °F 85.4 °F 73.4 °F 79% 30.00 in 10.0 mi SW 10.4 mph 19.6 mph N/A   Clear
12:15 PM 82.4 °F 88.2 °F 73.4 °F 74% 30.00 in 10.0 mi WSW 9.2 mph 16.1 mph N/A   Partly Cloudy
12:35 PM 82.4 °F 88.2 °F 73.4 °F 74% 30.00 in 10.0 mi WSW 10.4 mph - N/A   Scattered Clouds
12:55 PM 84.2 °F 90.9 °F 73.4 °F 70% 30.00 in 10.0 mi WSW 9.2 mph - N/A   Scattered Clouds
1:15 PM 84.2 °F 90.9 °F 73.4 °F 70% 30.00 in 10.0 mi SW 10.4 mph - N/A   Mostly Cloudy
1:35 PM 82.4 °F 88.2 °F 73.4 °F 74% 30.00 in 10.0 mi SW 10.4 mph - N/A   Mostly Cloudy
1:55 PM 84.2 °F 92.3 °F 75.2 °F 74% 29.99 in 10.0 mi SW 9.2 mph - N/A   Mostly Cloudy
2:15 PM 86.0 °F 95.1 °F 75.2 °F 70% 29.99 in 10.0 mi WSW 9.2 mph 15.0 mph N/A   Scattered Clouds
2:35 PM 86.0 °F 95.1 °F 75.2 °F 70% 29.98 in 10.0 mi SW 8.1 mph - N/A   Partly Cloudy
2:55 PM 86.0 °F 95.1 °F 75.2 °F 70% 29.98 in 10.0 mi WSW 11.5 mph - N/A   Partly Cloudy
3:15 PM 87.8 °F 95.6 °F 73.4 °F 62% 29.97 in 10.0 mi WSW 10.4 mph 17.3 mph N/A   Partly Cloudy
3:35 PM 87.8 °F 97.6 °F 75.2 °F 66% 29.97 in 10.0 mi SW 10.4 mph - N/A   Clear
3:55 PM 87.8 °F 97.6 °F 75.2 °F 66% 29.97 in 10.0 mi West 6.9 mph 15.0 mph N/A   Clear
4:15 PM 87.8 °F 97.6 °F 75.2 °F 66% 29.97 in 10.0 mi West 5.8 mph 12.7 mph N/A   Clear
4:35 PM 87.8 °F 95.6 °F 73.4 °F 62% 29.97 in 10.0 mi WSW 6.9 mph - N/A   Clear
4:55 PM 87.8 °F 95.6 °F 73.4 °F 62% 29.97 in 10.0 mi West 8.1 mph - N/A   Partly Cloudy
5:15 PM 87.8 °F 95.6 °F 73.4 °F 62% 29.97 in 10.0 mi WSW 6.9 mph - N/A   Clear
5:35 PM 87.8 °F 97.6 °F 75.2 °F 66% 29.98 in 10.0 mi WSW 6.9 mph - N/A   Scattered Clouds
5:55 PM 86.0 °F 95.1 °F 75.2 °F 70% 29.98 in 10.0 mi SW 4.6 mph - N/A   Scattered Clouds
6:15 PM 86.0 °F 95.1 °F 75.2 °F 70% 29.98 in 10.0 mi West 4.6 mph - N/A   Scattered Clouds
6:35 PM 84.2 °F 94.1 °F 77.0 °F 79% 29.99 in 10.0 mi Calm Calm - N/A   Scattered Clouds
7:15 PM 80.6 °F 86.2 °F 75.2 °F 84% 29.99 in 10.0 mi Calm Calm - N/A   Clear
7:35 PM 80.6 °F 86.2 °F 75.2 °F 84% 29.99 in 10.0 mi Calm Calm - N/A   Clear
7:55 PM 78.8 °F - 75.2 °F 89% 29.99 in 10.0 mi Calm Calm - N/A   Clear
8:15 PM 75.2 °F - 73.4 °F 94% 30.00 in 10.0 mi North 5.8 mph - N/A   Clear
8:35 PM 75.2 °F - 73.4 °F 94% 30.00 in 10.0 mi North 3.5 mph - N/A   Clear
9:15 PM 73.4 °F - 73.4 °F 100% 30.01 in 10.0 mi ENE 3.5 mph - N/A   Clear
9:35 PM 73.4 °F - 73.4 °F 100% 30.01 in 10.0 mi Calm Calm - N/A   Clear
9:55 PM 71.6 °F - 71.6 °F 100% 30.02 in 10.0 mi Calm Calm - N/A   Mostly Cloudy
10:35 PM 71.6 °F - 71.6 °F 100% 30.02 in 10.0 mi ENE 3.5 mph - N/A   Mostly Cloudy
11:15 PM 71.6 °F - 71.6 °F 100% 30.03 in 10.0 mi Calm Calm - N/A   Mostly Cloudy
11:35 PM 71.6 °F - 71.6 °F 100% 30.03 in 10.0 mi Calm Calm - N/A   Partly Cloudy
11:55 PM 69.8 °F - 69.8 °F 100% 30.03 in 10.0 mi Calm Calm - N/A   Clear